{"data":{"norad_id":58404,"epoch":"2026-05-24T20:49:58.323360Z","epoch_age_seconds":85728,"freshness":"FRESH","line1":"1 58404U 23180C   26144.86803615  .00002700  00000+0  10768-3 0  9992","line2":"2 58404  43.0061 342.5837 0002022 250.9736 109.0897 15.27561072139279","mean_motion":15.27561072,"eccentricity":0.0002022,"inclination_deg":43.0061,"raan_deg":342.5837,"arg_perigee_deg":250.9736,"mean_anomaly_deg":109.0897,"bstar":0.00010768,"rev_number":13927,"period_min":94.267916772365,"perigee_km":481.71843057733,"apogee_km":484.49311715508,"semimajor_km":6861.2427738662,"source":"CELESTRAK","updated_at":"2026-05-25T13:38:18.616808Z"}}